Regional Weather Roundup
Issued by NWS

Home | Current Version | Previous Version | Graphics & Text | Print | Product List | Glossary On
Versions: 1 2 3 4 5 6 7 8 9 10 11 12 13 14 15 16 17 18 19 20 21 22 23 24 25 26 27 28 29 30 31 32 33 34 35 36 37 38 39 40 41 42 43 44 45 46 47 48 49 50
000
ASUS45 KBOU 080407
RWRCO

WEATHER ROUNDUP FOR COLORADO
NATIONAL WEATHER SERVICE DENVER/BOULDER CO
900 PM MST SUN FEB 07 2016

NOTE: "FAIR" INDICATES FEW OR NO CLOUDS BELOW 12000 FEET WITH NO
SIGNIFICANT WEATHER AND/OR OBSTRUCTIONS TO VISIBILITY.

COZ001>005-013-030-031-080500-
...NORTHWEST COLORADO...

CITY           SKY/WX    TMP DP  RH WIND       PRES   REMARKS
CRAIG          CLOUDY     0  -4  83 CALM      30.53S
HAYDEN         CLOUDY    16  10  79 CALM      30.50S
MEEKER         CLOUDY    15   9  76 SE3       30.52R
MOUNT WERNER   NOT AVBL
STEAMBOAT SPGS CLOUDY    22  14  71 E7        30.50R WCI  14
WALDEN         CLOUDY    21  10  63 S10       30.42F WCI  10
$$

COZ006>008-011-080500-
...WEST CENTRAL VALLEYS...

CITY           SKY/WX    TMP DP  RH WIND       PRES   REMARKS
GRAND JUNCTION CLOUDY    21  16  81 E5        30.54R WCI  15
MONTROSE       CLOUDY    20  14  77 SE9       30.55R WCI   9
EAGLE          CLEAR     21  18  86 E7        30.53R WCI  13
RIFLE          CLOUDY    17  10  74 CALM      30.54R
DELTA          CLOUDY    29  22  74 CALM      30.55R
NUCLA          CLOUDY    27  19  74 E7        30.53R WCI  19
$$

COZ017>023-064>068-080500-
...SOUTHWEST COLORADO...

CITY           SKY/WX    TMP DP  RH WIND       PRES   REMARKS
DURANGO        CLOUDY    20  14  77 NE9       30.41R WCI   9
CORTEZ         CLOUDY    30  19  63 E5        30.41S WCI  25
PAGOSA SPRINGS CLOUDY    20  19  97 CALM      30.41R
TELLURIDE      NOT AVBL
WOLF CREEK PAS CLOUDY    25  -2  30 N13G23    30.48S WCI  13
$$

COZ009-010-012-014-032>034-037-058>063-080500-
...CENTRAL COLORADO...

CITY           SKY/WX    TMP DP  RH WIND       PRES   REMARKS
ASPEN          CLOUDY    16   9  74 S6        30.50S WCI   7
BUENA VISTA    CLOUDY    32  11  41 N26G44    30.33R WCI  18
COPPER MTN     CLOUDY    18   9  68 W17G31    30.43R WCI   2
BERTHOUD PASS  FAIR       9  -2  61 NW36      30.34R WCI -16
COTTONWOOD PAS CLOUDY    34   1  25 NW18G44   30.31R WCI  23
GUNNISON       CLOUDY     1   1 100 CALM      30.53S
KREMMLING      CLOUDY    18   9  68 CALM      30.49S
LEADVILLE      CLOUDY    18   7  62 NW10G17   30.46S WCI   6
MONARCH PASS   CLOUDY    14   7  73 MISG      30.52S
SALIDA         NOT AVBL
SUNLIGHT       CLOUDY    19  14  79 W5          N/A  WCI  13
WILKERSON PASS CLOUDY    23   3  42 MISG      30.32R
$$

COZ069>075-080500-
...SAN LUIS VALLEY/SANGRE DE CRISTO MOUNTAINS...

CITY           SKY/WX    TMP DP  RH WIND       PRES   REMARKS
ALAMOSA        CLOUDY    24  14  65 CALM      30.38R
LA VETA PASS   CLOUDY    27   7  43 S9        30.36R WCI  17
SAGUACHE       CLOUDY    32  14  47 N16G22    30.41S WCI  21
$$

COZ035-036-038>040-080500-
...NORTHERN COLORADO FRONT RANGE...

CITY           SKY/WX    TMP DP  RH WIND       PRES   REMARKS
DENVER INTL AP CLOUDY    16  11  80 SE13      30.37R WCI   2
DMNS CITY PARK   N/A     24  18  77 SE6       30.39R WCI  17
AURORA         PTCLDY    18  16  91 SE12      30.38R WCI   5
FRONT RANGE AP MOCLDY    16  10  79 SE10      30.38R WCI   3
ERIE MUNI ARPT CLEAR     20  17  90 CALM      30.39R
BOULDER MUN AP CLEAR     27  21  80 CALM      30.38R
CENTENNIAL     CLOUDY    21  16  81 SE10      30.36R WCI  10
BROOMFIELD     PTCLDY    25  19  80 CALM      30.37R
FORT COLLINS   CLEAR     21  16  79 S9        30.38R WCI  11
LONGMONT       PTCLDY    27  20  75 S6        30.41R WCI  21
$$

COZ041-046-047-076>085-087-088-080500-
...PIKES PEAK/PALMER DIVIDE AND SOUTHERN FOOTHILLS...

CITY           SKY/WX    TMP DP  RH WIND       PRES   REMARKS
COLO. SPRINGS  CLOUDY    23  19  85 CALM      30.38R
A. F. ACADEMY  CLOUDY    23  20  90 S7        30.35R WCI  15
SCHRIEVER AFB  CLOUDY    22  19  87 N7        30.37R WCI  14
ELLICOTT       NOT AVBL
FALCON         CLOUDY    20  19  95 NE3       30.36R
FORT CARSON    CLOUDY    23  20  88 S6        30.37R WCI  15
LIMON          CLOUDY    17  11  77 W6        30.37S WCI   9
MONUMENT HILL  CLOUDY    19  18  93 SE8       30.35R WCI   9
TRINIDAD       CLOUDY    23  18  81 N3        30.38R
$$

COZ042>045-048>051-090-091-080500-
...NORTHEAST COLORADO...

CITY           SKY/WX    TMP DP  RH WIND       PRES   REMARKS
GREELEY ARPT   CLEAR     19  14  79 NW9       30.39R WCI   9
AKRON          CLOUDY    27  15  61 NW23G32   30.35R WCI  12
BURLINGTON     CLOUDY    28  16  60 NW18      30.34S WCI  15
WRAY           CLEAR     30  15  52 NW24G33   30.33R WCI  16
STERLING       CLOUDY    28  16  59 N18       30.35R WCI  16
HOLYOKE        CLEAR     30  14  51 NW20G29   30.32R WCI  18
FORT MORGAN    CLOUDY    18  12  77 NW10      30.39R WCI   6
$$

COZ086-089-092>099-080500-
...SOUTHEAST COLORADO...

CITY           SKY/WX    TMP DP  RH WIND       PRES   REMARKS
PUEBLO         CLOUDY    30  22  72 SE3       30.41S
LA JUNTA       PTCLDY    27  20  75 W5        30.43R WCI  22
LAMAR          CLOUDY    31  18  58 W12       30.39R WCI  22
SPRINGFIELD      N/A     21  16  81 W9        30.39R WCI  11
$$



USA.gov is the U.S. government's official web portal to all federal, state and local government web resources and services.